ORBCOMM FM114 [+]

Last updated on July 6, 2021, 3:36 p.m. UTC

1 41179U 15081A   21187.15240855 -.00000044  00000-0  28068-4 0  9993
2 41179  47.0021 234.0088 0003558 235.0224 125.0327 14.54895083294385
UTC
Height (km)
Latitude
Longitude
Inclination
Orbital Period
UTC large
Height (km)
Speed (km/s)
/
Latitude / Longitude
Inclination (degrees)
Orbital Period (minutes)
Azimuth
Elevation
Range (km)
Doppler Factor
iOS Compass Heading
iOS Angle